User: anonymous   Login
Location: Caltech
(34.1382°N, 118.1253°W)
Time: 14:57:17
(UTC-08:00)
Language:

OAO 1 Rocket - Orbit

View from above orbital plane
View from above orbital plane
View from above satellite
View from above satellite

Ground track
Ground track

The orbit data is extracted from the following two-line orbital elements,

1  2144U 66031B   17022.89612757 +.00000055 +00000-0 +22075-4 0  9994
2  2144 035.0426 285.8818 0007670 076.4794 283.6750 14.42598551666698
Epoch (UTC): 22 January 2017 21:30:25
Eccentricity: 0.0007670
inclination: 35.0426°
perigee height: 744 km
apogee height: 755 km
right ascension of ascending node: 285.8818°
argument of perigee: 76.4794°
revolutions per day: 14.42598551
mean anomaly at epoch: 283.6750°
orbit number at epoch: 66669

The dashed part of the orbit path shows where the satellite is in the earth's shadow,  

DLR